Weather in Komarovka

Russia / Samara Oblast     53°18′17″N   49°08′16″E
temp.,
°C
wind,
m/s
gust,
m/s
humid.,
%
clouds,
%
prec.,
mm/h
press.,
hPa
HPBL,
m
28 february, sun
sun2801:00−13nnw81492100 0.1 1002461
04:00−14nnw81492100 0.3 1004486
07:00−16nnw71392100 0.1 1006410
10:00−16nnw71291100 0.1 1008425
13:00−13nnw61090100 0.0 1009511
16:00−13nnw61089100 0.1 1011569
19:00−15nnw5119296 0.0 1013350
22:00−15nnw5109394 0.1 1015341
1 march, mon
mon101:00−16nnw499599 0.0 1017256
04:00−18nnw489596 0.1 1019191
07:00−20nnw489783 0.0 1020193
10:00−18n589487 0.0 1022300
13:00−14nnw358981 0.0 1022378
16:00−12nw248889 0.0 1023470
19:00−17w119786 0.0 102220
22:00−17ssw229655 0.0 102221
2 march, tue
tue201:00−16ssw239895 0.0 101934
04:00−15ssw489797 0.0 1016169
07:00−12ssw61196100 0.1 1012329
10:00−7ssw81395100 1.4 1009543
13:00−3sw81296100 1.4 1005663
16:00−1sw81297100 3.1 1002715
19:00−1sw61198100 1.5 1000479
22:00−1wnw3995100 2.3 1001317
3 march, wed
wed301:00−6wnw349648 0.0 100073
04:00−4wnw399573 0.4 1001350
07:00−4wnw4109499 0.4 1002434
10:00−3nw5109398 0.5 1003549
13:00−1nw589699 0.3 1004649
16:00−1nnw589399 0.7 1005652
19:00−3nw3797100 0.3 1006222
22:00−5nw4119598 0.4 1009307
4 march, thu
thu401:00−7nnw5129156 0.0 1010315
04:00−10nw499348 0.0 1012205
07:00−12nw34943 0.0 101461
10:00−9w48922 0.0 1015279
13:00−6wsw589287 0.0 1014445
16:00−3sw7118993 0.0 1012731
19:00−4sw71590100 0.0 1011684
22:00−3sw81689100 0.0 1010693